TimeMST,TemperatureF,Dew PointF,Humidity,Sea Level PressureIn,VisibilityMPH,Wind Direction,Wind SpeedMPH,Gust SpeedMPH,PrecipitationIn,Events,Conditions,WindDirDegrees,DateUTC
12:15 AM,52.0,26.4,37,30.23,10.0,South,3.5,-,N/A,,Overcast,170,2012-11-17 07:15:00
12:35 AM,50.0,26.4,40,30.24,10.0,Calm,Calm,-,N/A,,Scattered Clouds,0,2012-11-17 07:35:00
12:55 AM,44.2,23.0,43,30.23,10.0,Calm,Calm,-,N/A,,Clear,0,2012-11-17 07:55:00
1:15 AM,43.7,23.2,44,30.22,10.0,Calm,Calm,-,N/A,,Clear,0,2012-11-17 08:15:00
1:35 AM,42.1,22.1,45,30.21,10.0,Calm,Calm,-,N/A,,Clear,0,2012-11-17 08:35:00
1:55 AM,42.6,22.8,46,30.21,10.0,Calm,Calm,-,N/A,,Clear,0,2012-11-17 08:55:00
2:15 AM,41.9,22.8,47,30.21,10.0,Calm,Calm,-,N/A,,Clear,0,2012-11-17 09:15:00
2:35 AM,40.8,22.6,48,30.21,10.0,West,3.5,-,N/A,,Clear,270,2012-11-17 09:35:00
2:55 AM,41.9,22.6,46,30.21,10.0,Calm,Calm,-,N/A,,Clear,0,2012-11-17 09:55:00
3:15 AM,40.5,21.7,47,30.21,10.0,Calm,Calm,-,N/A,,Clear,0,2012-11-17 10:15:00
3:35 AM,41.2,23.5,50,30.21,10.0,Calm,Calm,-,N/A,,Clear,0,2012-11-17 10:35:00
3:55 AM,39.0,21.6,50,30.21,10.0,Calm,Calm,-,N/A,,Clear,0,2012-11-17 10:55:00
4:15 AM,40.1,22.6,50,30.21,10.0,Calm,Calm,-,N/A,,Clear,0,2012-11-17 11:15:00
4:55 AM,40.3,22.6,49,30.20,10.0,Calm,Calm,-,N/A,,Clear,0,2012-11-17 11:55:00
5:15 AM,41.2,24.1,51,30.21,10.0,NW,3.5,-,N/A,,Clear,320,2012-11-17 12:15:00
5:35 AM,41.9,23.9,49,30.21,10.0,NNW,4.6,-,N/A,,Clear,330,2012-11-17 12:35:00
5:55 AM,42.1,24.3,49,30.21,10.0,NW,3.5,-,N/A,,Clear,320,2012-11-17 12:55:00
6:15 AM,42.1,23.9,49,30.23,10.0,WNW,3.5,-,N/A,,Clear,300,2012-11-17 13:15:00
6:35 AM,41.7,23.9,49,30.23,10.0,NNW,3.5,-,N/A,,Clear,340,2012-11-17 13:35:00
6:55 AM,42.3,24.4,49,30.23,10.0,Calm,Calm,-,N/A,,Clear,0,2012-11-17 13:55:00
7:15 AM,42.1,23.7,48,30.23,10.0,Calm,Calm,-,N/A,,Clear,0,2012-11-17 14:15:00
7:35 AM,46.0,25.2,44,30.25,10.0,Calm,Calm,-,N/A,,Clear,0,2012-11-17 14:35:00
7:55 AM,51.1,25.5,37,30.25,10.0,Calm,Calm,-,N/A,,Clear,0,2012-11-17 14:55:00
8:15 AM,52.5,25.7,35,30.25,10.0,Calm,Calm,-,N/A,,Clear,0,2012-11-17 15:15:00
8:35 AM,53.8,26.2,35,30.26,10.0,Calm,Calm,-,N/A,,Clear,0,2012-11-17 15:35:00
9:15 AM,55.6,27.1,34,30.27,10.0,Calm,Calm,-,N/A,,Clear,0,2012-11-17 16:15:00
9:35 AM,56.3,27.3,33,30.27,10.0,Calm,Calm,-,N/A,,Scattered Clouds,0,2012-11-17 16:35:00
10:55 AM,59.9,28.2,30,30.28,10.0,South,9.2,-,N/A,,Clear,180,2012-11-17 17:55:00
11:15 AM,61.7,30.7,31,30.26,10.0,SSE,6.9,-,N/A,,Scattered Clouds,150,2012-11-17 18:15:00
11:35 AM,61.5,31.1,32,30.25,10.0,SE,9.2,-,N/A,,Mostly Cloudy,140,2012-11-17 18:35:00
11:55 AM,61.3,31.5,32,30.23,10.0,SE,5.8,-,N/A,,Overcast,130,2012-11-17 18:55:00
12:15 PM,61.9,31.6,32,30.23,10.0,SSE,6.9,-,N/A,,Overcast,150,2012-11-17 19:15:00
12:55 PM,61.9,31.8,32,30.21,10.0,Calm,Calm,-,N/A,,Clear,0,2012-11-17 19:55:00
1:15 PM,63.0,32.0,31,30.21,10.0,West,5.8,-,N/A,,Scattered Clouds,260,2012-11-17 20:15:00
1:55 PM,63.9,32.0,30,30.19,10.0,Calm,Calm,-,N/A,,Mostly Cloudy,0,2012-11-17 20:55:00
2:15 PM,64.6,32.0,30,30.19,10.0,SE,3.5,-,N/A,,Mostly Cloudy,130,2012-11-17 21:15:00
3:15 PM,65.5,32.0,29,30.17,10.0,ESE,5.8,-,N/A,,Clear,110,2012-11-17 22:15:00
3:35 PM,65.1,32.0,29,30.18,10.0,SE,4.6,-,N/A,,Scattered Clouds,130,2012-11-17 22:35:00
3:55 PM,64.9,32.2,29,30.17,10.0,ESE,4.6,-,N/A,,Mostly Cloudy,120,2012-11-17 22:55:00
4:15 PM,64.8,32.0,29,30.18,10.0,SE,4.6,-,N/A,,Overcast,140,2012-11-17 23:15:00
4:35 PM,64.8,32.2,30,30.18,10.0,SSE,4.6,-,N/A,,Overcast,150,2012-11-17 23:35:00
4:55 PM,63.9,32.2,31,30.17,10.0,SE,5.8,-,N/A,,Mostly Cloudy,130,2012-11-17 23:55:00
5:15 PM,62.8,32.2,32,30.16,10.0,ESE,5.8,-,N/A,,Scattered Clouds,120,2012-11-18 00:15:00
5:35 PM,61.3,32.0,33,30.17,10.0,SE,5.8,-,N/A,,Scattered Clouds,130,2012-11-18 00:35:00
5:55 PM,60.6,32.0,34,30.17,10.0,SSE,4.6,-,N/A,,Clear,150,2012-11-18 00:55:00
6:15 PM,60.3,32.0,34,30.17,10.0,SE,4.6,-,N/A,,Clear,140,2012-11-18 01:15:00
6:35 PM,59.5,31.8,35,30.18,10.0,SE,3.5,-,N/A,,Clear,140,2012-11-18 01:35:00
6:55 PM,59.0,31.8,36,30.17,10.0,ESE,4.6,-,N/A,,Clear,120,2012-11-18 01:55:00
7:15 PM,58.3,32.0,37,30.17,10.0,ESE,3.5,-,N/A,,Scattered Clouds,120,2012-11-18 02:15:00
7:35 PM,58.3,32.0,37,30.17,10.0,ESE,3.5,-,N/A,,Scattered Clouds,120,2012-11-18 02:35:00
7:55 PM,57.2,32.4,39,30.18,10.0,Calm,Calm,-,N/A,,Clear,0,2012-11-18 02:55:00
8:15 PM,55.6,32.0,41,30.18,10.0,SE,3.5,-,N/A,,Clear,130,2012-11-18 03:15:00
8:35 PM,56.3,32.2,40,30.17,10.0,SE,3.5,-,N/A,,Clear,130,2012-11-18 03:35:00
8:55 PM,56.5,33.1,41,30.17,10.0,SE,4.6,-,N/A,,Clear,130,2012-11-18 03:55:00
9:15 PM,57.4,33.4,40,30.17,10.0,SSE,3.5,-,N/A,,Clear,160,2012-11-18 04:15:00
9:35 PM,55.8,33.4,43,30.17,10.0,South,4.6,-,N/A,,Scattered Clouds,180,2012-11-18 04:35:00
9:55 PM,52.5,32.4,46,30.17,10.0,South,3.5,-,N/A,,Clear,180,2012-11-18 04:55:00
10:35 PM,53.6,32.0,44,30.17,10.0,South,3.5,-,N/A,,Clear,190,2012-11-18 05:35:00
10:55 PM,57.2,34.7,43,30.17,10.0,SSW,6.9,-,N/A,,Clear,200,2012-11-18 05:55:00
11:15 PM,56.7,34.3,43,30.17,10.0,SSW,5.8,-,N/A,,Scattered Clouds,210,2012-11-18 06:15:00
11:35 PM,55.9,34.2,44,30.16,10.0,SSW,6.9,-,N/A,,Clear,210,2012-11-18 06:35:00
11:55 PM,55.4,34.2,45,30.16,10.0,SW,5.8,-,N/A,,Clear,230,2012-11-18 06:55:00